• In Deutschland
  • Länderverzeichnis
  • Für 7 Tage
  • Wassertemperatur
  • Satellitenkarten
  • Wetterkarte
  • Widgets
  • user-avatar
    Anmelden

    Stündliche Wetter Hof

    Heute, 20 Oktober, Freitag

    Zeit Temperatur Niederschläge Wind Luftdruck Luftfeuchtigkeit
    00:00 +10°C° 0 mm 2 m/S 715 mmHg 77%
    01:00 +10°C° 0 mm 1 m/S 715 mmHg 79%
    02:00 +10°C° 0 mm 1 m/S 715 mmHg 78%
    03:00 +9°C° 0 mm 2 m/S 715 mmHg 77%
    04:00 +9°C° 0 mm 2 m/S 715 mmHg 75%
    05:00 +9°C° 0 mm 2 m/S 715 mmHg 75%
    06:00 +9°C° 0 mm 2 m/S 715 mmHg 74%
    07:00 +8°C° 0 mm 2 m/S 715 mmHg 74%
    08:00 +10°C° 0 mm 2 m/S 716 mmHg 69%
    09:00 +13°C° 0 mm 2 m/S 716 mmHg 64%
    10:00 +14°C° 0 mm 3 m/S 716 mmHg 59%
    11:00 +16°C° 0 mm 3 m/S 716 mmHg 58%
    12:00 +17°C° 0 mm 3 m/S 716 mmHg 57%
    13:00 +18°C° 0 mm 3 m/S 717 mmHg 56%
    14:00 +17°C° 0 mm 3 m/S 716 mmHg 61%
    15:00 +17°C° 0 mm 3 m/S 716 mmHg 65%
    16:00 +16°C° 0 mm 3 m/S 716 mmHg 70%
    17:00 +14°C° 0,1 mm 3 m/S 716 mmHg 75%
    18:00 +13°C° 0,1 mm 3 m/S 717 mmHg 81%
    19:00 +12°C° 0,1 mm 3 m/S 717 mmHg 86%
    20:00 +11°C° 0,1 mm 3 m/S 717 mmHg 89%
    21:00 +11°C° 0,1 mm 3 m/S 717 mmHg 91%
    22:00 +10°C° 0,1 mm 3 m/S 717 mmHg 94%
    23:00 +9°C° 0 mm 3 m/S 717 mmHg 94%

    Morgen, 21 Oktober, Samstag

    Zeit Temperatur Niederschläge Wind Luftdruck Luftfeuchtigkeit
    00:00 +9°C° 0 mm 2 m/S 717 mmHg 95%
    01:00 +8°C° 0 mm 2 m/S 717 mmHg 95%
    02:00 +8°C° 0 mm 2 m/S 717 mmHg 95%
    03:00 +8°C° 0 mm 2 m/S 717 mmHg 95%
    04:00 +8°C° 0 mm 2 m/S 717 mmHg 96%
    05:00 +9°C° 0 mm 2 m/S 717 mmHg 95%
    06:00 +9°C° 0 mm 2 m/S 717 mmHg 95%
    07:00 +9°C° 0 mm 2 m/S 717 mmHg 95%
    08:00 +11°C° 0 mm 3 m/S 717 mmHg 91%
    09:00 +12°C° 0 mm 3 m/S 717 mmHg 87%
    10:00 +13°C° 0 mm 4 m/S 717 mmHg 83%
    11:00 +14°C° 0 mm 4 m/S 717 mmHg 78%
    12:00 +15°C° 0 mm 4 m/S 717 mmHg 74%
    13:00 +17°C° 0 mm 4 m/S 717 mmHg 70%
    14:00 +17°C° 0 mm 4 m/S 717 mmHg 72%
    15:00 +17°C° 0 mm 3 m/S 716 mmHg 74%
    16:00 +16°C° 0 mm 3 m/S 716 mmHg 76%
    17:00 +16°C° 0,1 mm 3 m/S 716 mmHg 81%
    18:00 +15°C° 0,1 mm 2 m/S 716 mmHg 86%
    19:00 +14°C° 0,1 mm 2 m/S 716 mmHg 91%
    20:00 +13°C° 0,5 mm 3 m/S 716 mmHg 91%
    21:00 +12°C° 0,5 mm 3 m/S 717 mmHg 92%
    22:00 +12°C° 0,5 mm 3 m/S 717 mmHg 93%
    23:00 +11°C° 0,9 mm 3 m/S 717 mmHg 93%

    übermorgen, 22 Oktober, Sonntag

    Zeit Temperatur Niederschläge Wind Luftdruck Luftfeuchtigkeit
    00:00 +10°C° 0,9 mm 4 m/S 717 mmHg 92%
    01:00 +8°C° 0,9 mm 4 m/S 717 mmHg 92%
    02:00 +8°C° 0,3 mm 4 m/S 717 mmHg 92%
    03:00 +8°C° 0,3 mm 4 m/S 717 mmHg 92%
    04:00 +8°C° 0,3 mm 4 m/S 717 mmHg 91%
    05:00 +7°C° 0,1 mm 4 m/S 717 mmHg 91%
    06:00 +7°C° 0,1 mm 4 m/S 717 mmHg 92%
    07:00 +7°C° 0,1 mm 4 m/S 717 mmHg 92%
    08:00 +7°C° 0,1 mm 4 m/S 717 mmHg 89%
    09:00 +7°C° 0,1 mm 5 m/S 717 mmHg 86%
    10:00 +7°C° 0,1 mm 5 m/S 717 mmHg 84%
    11:00 +8°C° 0,1 mm 5 m/S 717 mmHg 81%
    12:00 +8°C° 0,1 mm 5 m/S 717 mmHg 79%
    13:00 +8°C° 0,1 mm 5 m/S 717 mmHg 77%
    14:00 +8°C° 0,1 mm 4 m/S 716 mmHg 77%
    15:00 +7°C° 0,1 mm 4 m/S 716 mmHg 77%
    16:00 +7°C° 0,1 mm 4 m/S 716 mmHg 77%
    17:00 +6°C° 0 mm 4 m/S 716 mmHg 81%
    18:00 +7°C° 0 mm 3 m/S 716 mmHg 86%
    19:00 +5°C° 0 mm 3 m/S 717 mmHg 90%
    20:00 +5°C° 0 mm 3 m/S 717 mmHg 91%
    21:00 +4°C° 0 mm 3 m/S 717 mmHg 91%
    22:00 +4°C° 0 mm 3 m/S 717 mmHg 92%
    23:00 +5°C° 0 mm 4 m/S 717 mmHg 91%

    23 Oktober, Montag

    Zeit Temperatur Niederschläge Wind Luftdruck Luftfeuchtigkeit
    00:00 +5°C° 0 mm 4 m/S 717 mmHg 91%
    01:00 +5°C° 0 mm 4 m/S 717 mmHg 90%
    02:00 +5°C° 0,1 mm 4 m/S 716 mmHg 90%
    03:00 +5°C° 0,1 mm 4 m/S 716 mmHg 90%
    04:00 +5°C° 0,1 mm 4 m/S 716 mmHg 90%
    05:00 +5°C° 0,1 mm 3 m/S 716 mmHg 90%
    06:00 +4°C° 0,1 mm 3 m/S 716 mmHg 91%
    07:00 +4°C° 0,1 mm 3 m/S 716 mmHg 91%
    08:00 +5°C° 0,3 mm 3 m/S 716 mmHg 90%
    09:00 +6°C° 0,3 mm 4 m/S 716 mmHg 88%
    10:00 +6°C° 0,3 mm 4 m/S 716 mmHg 87%
    11:00 +6°C° 0,6 mm 4 m/S 716 mmHg 87%
    12:00 +6°C° 0,6 mm 4 m/S 716 mmHg 88%
    13:00 +6°C° 0,6 mm 5 m/S 716 mmHg 88%
    14:00 +6°C° 0,9 mm 5 m/S 716 mmHg 90%
    15:00 +6°C° 0,9 mm 5 m/S 716 mmHg 91%
    16:00 +6°C° 0,9 mm 5 m/S 716 mmHg 92%
    17:00 +6°C° 0,8 mm 4 m/S 717 mmHg 92%
    18:00 +6°C° 0,8 mm 4 m/S 717 mmHg 92%
    19:00 +6°C° 0,8 mm 4 m/S 717 mmHg 93%
    20:00 +7°C° 0,3 mm 3 m/S 718 mmHg 94%
    21:00 +7°C° 0,3 mm 3 m/S 718 mmHg 94%
    22:00 +7°C° 0,3 mm 3 m/S 718 mmHg 95%
    23:00 +5°C° 0,1 mm 3 m/S 719 mmHg 95%

    24 Oktober, Dienstag

    Zeit Temperatur Niederschläge Wind Luftdruck Luftfeuchtigkeit
    00:00 +6°C° 0,1 mm 2 m/S 719 mmHg 96%
    01:00 +6°C° 0,1 mm 2 m/S 719 mmHg 96%
    02:00 +6°C° 0 mm 2 m/S 720 mmHg 96%
    03:00 +7°C° 0 mm 1 m/S 720 mmHg 97%
    04:00 +7°C° 0 mm 1 m/S 720 mmHg 97%
    05:00 +7°C° 0 mm 1 m/S 721 mmHg 97%
    06:00 +7°C° 0 mm 1 m/S 721 mmHg 97%
    07:00 +7°C° 0 mm 1 m/S 722 mmHg 97%
    08:00 +8°C° 0 mm 1 m/S 722 mmHg 94%
    09:00 +9°C° 0 mm 1 m/S 723 mmHg 91%
    10:00 +10°C° 0 mm 1 m/S 723 mmHg 88%
    11:00 +10°C° 0 mm 1 m/S 723 mmHg 86%
    12:00 +10°C° 0 mm 1 m/S 723 mmHg 83%
    13:00 +10°C° 0 mm 2 m/S 723 mmHg 81%
    14:00 +11°C° 0 mm 1 m/S 723 mmHg 82%
    15:00 +10°C° 0 mm 1 m/S 723 mmHg 83%
    16:00 +10°C° 0 mm 1 m/S 723 mmHg 84%
    17:00 +9°C° 0 mm 1 m/S 723 mmHg 88%
    18:00 +8°C° 0 mm 1 m/S 724 mmHg 91%
    19:00 +7°C° 0 mm 1 m/S 724 mmHg 95%
    20:00 +6°C° 0 mm 1 m/S 724 mmHg 95%
    21:00 +6°C° 0 mm 1 m/S 724 mmHg 95%
    22:00 +6°C° 0 mm 1 m/S 724 mmHg 95%
    23:00 +5°C° 0 mm 2 m/S 724 mmHg 95%

    25 Oktober, Mittwoch

    Zeit Temperatur Niederschläge Wind Luftdruck Luftfeuchtigkeit
    00:00 +5°C° 0 mm 2 m/S 724 mmHg 95%
    01:00 +5°C° 0 mm 2 m/S 724 mmHg 95%
    02:00 +5°C° 0 mm 2 m/S 724 mmHg 95%
    03:00 +5°C° 0 mm 2 m/S 724 mmHg 95%
    04:00 +5°C° 0 mm 2 m/S 724 mmHg 95%
    05:00 +5°C° 0 mm 2 m/S 724 mmHg 94%
    06:00 +5°C° 0 mm 2 m/S 724 mmHg 94%
    07:00 +5°C° 0 mm 2 m/S 724 mmHg 94%
    08:00 +6°C° 0 mm 2 m/S 725 mmHg 89%
    09:00 +8°C° 0 mm 2 m/S 725 mmHg 83%
    10:00 +10°C° 0 mm 2 m/S 725 mmHg 78%
    11:00 +12°C° 0 mm 2 m/S 725 mmHg 73%
    12:00 +13°C° 0 mm 2 m/S 725 mmHg 68%
    13:00 +14°C° 0 mm 1 m/S 725 mmHg 63%
    14:00 +14°C° 0 mm 1 m/S 725 mmHg 66%
    15:00 +14°C° 0 mm 1 m/S 724 mmHg 69%
    16:00 +13°C° 0 mm 1 m/S 724 mmHg 72%
    17:00 +12°C° 0 mm 1 m/S 724 mmHg 76%
    18:00 +10°C° 0 mm 1 m/S 724 mmHg 80%
    19:00 +9°C° 0 mm 1 m/S 725 mmHg 84%
    20:00 +8°C° 0 mm 1 m/S 725 mmHg 83%
    21:00 +8°C° 0 mm 1 m/S 725 mmHg 82%
    22:00 +8°C° 0 mm 1 m/S 725 mmHg 81%
    23:00 +8°C° 0 mm 1 m/S 725 mmHg 79%
    Mehr zeigen